When you browse on this site, cookies collect data to enhance your experience and personalize the content and advertising you see.
Visit our Privacy Policy to learn more. By continuing to use the site, you agree to this use of cookies and data.
  • In Romania
  • List of Countries
  • For 7 days
  • Water Temperature
  • Satellite Maps
  • Weather Map
  • Weather Widgets
  • user-avatar
    Login

    Hourly Weather Saint-Maximin-la-Sainte-Baume

    Today, 16 June, Sunday

    Time Temperature Precipitation Wind Pressure Humidity
    00:00 +18°C° 0 mm 2 mps 736 mmHg 81%
    01:00 +17°C° 0 mm 2 mps 735 mmHg 82%
    02:00 +17°C° 0 mm 2 mps 735 mmHg 83%
    03:00 +16°C° 0 mm 2 mps 735 mmHg 85%
    04:00 +17°C° 0 mm 2 mps 735 mmHg 79%
    05:00 +18°C° 0 mm 2 mps 735 mmHg 73%
    06:00 +19°C° 0 mm 2 mps 735 mmHg 67%
    07:00 +21°C° 0 mm 2 mps 735 mmHg 58%
    08:00 +25°C° 0 mm 2 mps 736 mmHg 49%
    09:00 +27°C° 0 mm 2 mps 736 mmHg 40%
    10:00 +28°C° 0 mm 2 mps 736 mmHg 36%
    11:00 +30°C° 0 mm 2 mps 736 mmHg 32%
    12:00 +31°C° 0 mm 2 mps 736 mmHg 28%
    13:00 +31°C° 0 mm 3 mps 736 mmHg 29%
    14:00 +31°C° 0 mm 3 mps 735 mmHg 31%
    15:00 +30°C° 0 mm 4 mps 735 mmHg 32%
    16:00 +29°C° 0 mm 3 mps 735 mmHg 37%
    17:00 +28°C° 0 mm 3 mps 735 mmHg 42%
    18:00 +27°C° 0 mm 2 mps 735 mmHg 47%
    19:00 +25°C° 0 mm 2 mps 735 mmHg 54%
    20:00 +23°C° 0 mm 1 mps 735 mmHg 62%
    21:00 +21°C° 0 mm 1 mps 735 mmHg 69%
    22:00 +20°C° 0 mm 1 mps 735 mmHg 71%
    23:00 +20°C° 0 mm 1 mps 735 mmHg 73%

    Tomorrow, 17 June, Monday

    Time Temperature Precipitation Wind Pressure Humidity
    00:00 +19°C° 0 mm 1 mps 735 mmHg 74%
    01:00 +19°C° 0 mm 1 mps 734 mmHg 76%
    02:00 +19°C° 0 mm 1 mps 734 mmHg 78%
    03:00 +18°C° 0 mm 1 mps 734 mmHg 80%
    04:00 +19°C° 0 mm 1 mps 734 mmHg 74%
    05:00 +21°C° 0 mm 1 mps 734 mmHg 68%
    06:00 +20°C° 0 mm 0 mps 735 mmHg 62%
    07:00 +24°C° 0 mm 1 mps 735 mmHg 55%
    08:00 +27°C° 0 mm 1 mps 735 mmHg 47%
    09:00 +29°C° 0 mm 1 mps 736 mmHg 39%
    10:00 +29°C° 0 mm 2 mps 736 mmHg 37%
    11:00 +30°C° 0 mm 3 mps 736 mmHg 35%
    12:00 +31°C° 0 mm 3 mps 736 mmHg 33%
    13:00 +31°C° 0 mm 3 mps 735 mmHg 33%
    14:00 +31°C° 0 mm 3 mps 735 mmHg 32%
    15:00 +30°C° 0 mm 2 mps 734 mmHg 32%
    16:00 +29°C° 0 mm 2 mps 734 mmHg 34%
    17:00 +28°C° 0 mm 2 mps 734 mmHg 36%
    18:00 +27°C° 0 mm 2 mps 734 mmHg 39%
    19:00 +25°C° 0 mm 1 mps 734 mmHg 44%
    20:00 +23°C° 0 mm 1 mps 734 mmHg 49%
    21:00 +21°C° 0 mm 1 mps 735 mmHg 54%
    22:00 +21°C° 0 mm 1 mps 734 mmHg 56%
    23:00 +20°C° 0 mm 1 mps 734 mmHg 59%

    Day after tomorrow, 18 June, Tuesday

    Time Temperature Precipitation Wind Pressure Humidity
    00:00 +20°C° 0 mm 1 mps 734 mmHg 62%
    01:00 +20°C° 0 mm 1 mps 734 mmHg 63%
    02:00 +19°C° 0 mm 1 mps 734 mmHg 64%
    03:00 +19°C° 0 mm 1 mps 734 mmHg 65%
    04:00 +20°C° 0 mm 1 mps 734 mmHg 61%
    05:00 +22°C° 0 mm 1 mps 734 mmHg 58%
    06:00 +23°C° 0 mm 1 mps 734 mmHg 55%
    07:00 +25°C° 0 mm 1 mps 735 mmHg 47%
    08:00 +28°C° 0 mm 1 mps 735 mmHg 40%
    09:00 +30°C° 0 mm 1 mps 735 mmHg 33%
    10:00 +31°C° 0 mm 2 mps 735 mmHg 30%
    11:00 +32°C° 0 mm 2 mps 735 mmHg 27%
    12:00 +33°C° 0 mm 3 mps 735 mmHg 25%
    13:00 +33°C° 0 mm 3 mps 735 mmHg 25%
    14:00 +33°C° 0 mm 3 mps 735 mmHg 26%
    15:00 +33°C° 0 mm 4 mps 734 mmHg 27%
    16:00 +30°C° 0 mm 3 mps 734 mmHg 30%
    17:00 +29°C° 0 mm 3 mps 734 mmHg 33%
    18:00 +27°C° 0 mm 3 mps 734 mmHg 37%
    19:00 +25°C° 0 mm 2 mps 734 mmHg 39%
    20:00 +23°C° 0 mm 2 mps 734 mmHg 42%
    21:00 +21°C° 0 mm 1 mps 734 mmHg 45%
    22:00 +21°C° 0 mm 1 mps 734 mmHg 46%
    23:00 +20°C° 0 mm 1 mps 734 mmHg 46%

    19 June, Wednesday

    Time Temperature Precipitation Wind Pressure Humidity
    00:00 +20°C° 0 mm 1 mps 734 mmHg 47%
    01:00 +19°C° 0 mm 1 mps 734 mmHg 47%
    02:00 +19°C° 0 mm 1 mps 734 mmHg 48%
    03:00 +19°C° 0 mm 1 mps 733 mmHg 49%
    04:00 +20°C° 0 mm 1 mps 733 mmHg 47%
    05:00 +22°C° 0 mm 1 mps 734 mmHg 45%
    06:00 +23°C° 0 mm 1 mps 734 mmHg 42%
    07:00 +25°C° 0 mm 1 mps 734 mmHg 37%
    08:00 +27°C° 0 mm 2 mps 734 mmHg 32%
    09:00 +29°C° 0 mm 3 mps 735 mmHg 26%
    10:00 +30°C° 0 mm 3 mps 735 mmHg 26%
    11:00 +30°C° 0 mm 4 mps 735 mmHg 26%
    12:00 +32°C° 0 mm 4 mps 735 mmHg 25%
    13:00 +30°C° 0 mm 4 mps 735 mmHg 26%
    14:00 +30°C° 0 mm 4 mps 734 mmHg 27%
    15:00 +29°C° 0 mm 4 mps 734 mmHg 28%
    16:00 +28°C° 0 mm 3 mps 734 mmHg 31%
    17:00 +28°C° 0 mm 2 mps 734 mmHg 34%
    18:00 +27°C° 0 mm 1 mps 734 mmHg 38%
    19:00 +25°C° 0 mm 1 mps 734 mmHg 42%
    20:00 +23°C° 0 mm 1 mps 734 mmHg 45%
    21:00 +21°C° 0 mm 1 mps 734 mmHg 49%
    22:00 +20°C° 0 mm 1 mps 734 mmHg 49%
    23:00 +18°C° 0 mm 0 mps 734 mmHg 49%

    20 June, Thursday

    Time Temperature Precipitation Wind Pressure Humidity
    00:00 +18°C° 0 mm 0 mps 734 mmHg 48%
    01:00 +17°C° 0 mm 0 mps 733 mmHg 49%
    02:00 +19°C° 0 mm 1 mps 733 mmHg 50%
    03:00 +19°C° 0 mm 1 mps 733 mmHg 51%
    04:00 +20°C° 0 mm 1 mps 733 mmHg 49%
    05:00 +21°C° 0 mm 1 mps 733 mmHg 48%
    06:00 +22°C° 0 mm 1 mps 734 mmHg 46%
    07:00 +25°C° 0 mm 1 mps 734 mmHg 40%
    08:00 +27°C° 0 mm 2 mps 734 mmHg 35%
    09:00 +29°C° 0 mm 2 mps 735 mmHg 30%
    10:00 +30°C° 0 mm 3 mps 734 mmHg 27%
    11:00 +31°C° 0 mm 3 mps 734 mmHg 25%
    12:00 +33°C° 0 mm 3 mps 734 mmHg 22%
    13:00 +33°C° 0 mm 4 mps 734 mmHg 24%
    14:00 +32°C° 0 mm 4 mps 734 mmHg 26%
    15:00 +30°C° 0 mm 5 mps 734 mmHg 28%
    16:00 +29°C° 0 mm 3 mps 734 mmHg 31%
    17:00 +28°C° 0 mm 2 mps 734 mmHg 34%
    18:00 +27°C° 0 mm 1 mps 734 mmHg 37%
    19:00 +25°C° 0 mm 1 mps 734 mmHg 41%
    20:00 +23°C° 0 mm 1 mps 734 mmHg 44%
    21:00 +21°C° 0 mm 1 mps 734 mmHg 48%
    22:00 +21°C° 0 mm 1 mps 734 mmHg 50%
    23:00 +20°C° 0 mm 1 mps 734 mmHg 52%

    21 June, Friday

    Time Temperature Precipitation Wind Pressure Humidity
    00:00 +18°C° 0 mm 0 mps 734 mmHg 54%
    01:00 +19°C° 0 mm 1 mps 734 mmHg 56%
    02:00 +19°C° 0 mm 1 mps 734 mmHg 57%
    03:00 +19°C° 0 mm 1 mps 733 mmHg 59%
    04:00 +20°C° 0 mm 1 mps 734 mmHg 57%
    05:00 +21°C° 0 mm 1 mps 734 mmHg 54%
    06:00 +22°C° 0 mm 1 mps 734 mmHg 52%
    07:00 +24°C° 0 mm 1 mps 734 mmHg 46%
    08:00 +26°C° 0 mm 1 mps 734 mmHg 39%
    09:00 +28°C° 0 mm 2 mps 734 mmHg 33%
    10:00 +29°C° 0 mm 2 mps 735 mmHg 32%
    11:00 +29°C° 0 mm 3 mps 735 mmHg 32%
    12:00 +30°C° 0 mm 3 mps 735 mmHg 32%
    13:00 +30°C° 0 mm 3 mps 734 mmHg 34%
    14:00 +30°C° 0 mm 3 mps 734 mmHg 36%
    15:00 +29°C° 0 mm 3 mps 734 mmHg 37%
    16:00 +28°C° 0 mm 3 mps 734 mmHg 42%
    17:00 +27°C° 0 mm 2 mps 734 mmHg 46%
    18:00 +26°C° 0 mm 1 mps 734 mmHg 50%
    19:00 +24°C° 0 mm 1 mps 734 mmHg 56%
    20:00 +22°C° 0 mm 1 mps 734 mmHg 61%
    21:00 +19°C° 0 mm 0 mps 734 mmHg 67%
    22:00 +18°C° 0 mm 0 mps 734 mmHg 68%
    23:00 +18°C° 0 mm 0 mps 734 mmHg 69%
    Show more